Tracking 30995 objects as of 6-Jul-2025
HD Live streaming from Space Station
objects crossing your sky now

CZ-3C DEB

Track CZ-3C DEB now!


NORAD ID: 39349
Int'l Code: 2010-057P
Perigee: 518.0 km
Apogee: 35,222.5 km
Inclination: 20.1 °
Period: 626.0 minutes
Semi major axis: 24241 km
RCS: 0.3306 m2 (medium)
Launch date: October 31, 2010
Source: People's Republic of China (PRC)
Launch site: Xichang Space Center, China (XSC)

Note: This is SATELLITE DEBRIS
Your satellite tracking list
Your tracking list is empty




NASA's NSSDC Master Catalog

Two Line Element Set (TLE):
1 39349U 10057P   25183.53698900  .00000189  00000-0  17123-2 0  9994
2 39349  20.0551 116.1118 7158153 122.6414   4.4766  2.30022918 89711
Source of the keplerian elements: AFSPC